Tracking 18980 objects as of 19-Feb-2018
HD Live streaming from Space Station
objects crossing your sky now

FENGYUN 1C DEB

Track FENGYUN 1C DEB now!
10-day predictions


NORAD ID: 32172
Int'l Code: 1999-025CTS
Perigee: 566.7 km
Apogee: 779.0 km
Inclination: 99.1 °
Period: 98.1 minutes
Semi major axis: 7043 km
RCS: 0.0072 m2 (small)
Launch date: May 10, 1999
Source: People's Republic of China (PRC)
Launch site: Taiyaun Space Center, China (TSC)

Note: This is SATELLITE DEBRIS
aabbcc
Your satellite tracking list
Your tracking list is empty




NASA's NSSDC Master Catalog

Two Line Element Set (TLE):
1 32172U 99025CTS 18048.35307458  .00000572  00000-0  93711-4 0  9995
2 32172  99.0644 108.1801 0150652 263.4040  94.9994 14.68548322567146
Source of the keplerian elements: AFSPC